Change the Weather History Date:

Thursday, December 19, 2013

  Actual Average (KOMA) Record (KOMA)
Temperature  
Mean Temperature 26 °F 25 °F  
Max Temperature 34 °F 34 °F 60 °F (1966)
Min Temperature 18 °F 16 °F -16 °F (1983)
Degree Days  
Heating Degree Days 39 40  
Month to date heating degree days 717  
Since 1 July heating degree days 1987  
Cooling Degree Days 0 0  
Month to date cooling degree days 0  
Year to date cooling degree days 1113  
Moisture  
Dew Point 23 °F    
Average Humidity 79    
Maximum Humidity 92    
Minimum Humidity 65    
Precipitation  
Precipitation 0.00 in 0.04 in 0.81 in (2012)
Month to date precipitation 0.71  
Year to date precipitation 30.29  
Snow  
Snow 0.00 in 0.20 in - ()
Month to date snowfall 3.8  
Since 1 July snowfall 6.6  
Snow Depth -    
Sea Level Pressure  
Sea Level Pressure 29.78 in    
Wind  
Wind Speed 12 mph (North)    
Max Wind Speed 22 mph    
Max Gust Speed 26 mph    
Visibility 9 miles    
Events      
T = Trace of Precipitation, MM = Missing Value Source: NWS Daily Summary

Daily Weather History Graph

Daily Weather History Graph

Search for Another Location

Airport or City:

Trip Planner

Search our weather history database for the weather conditions in past years. The results will help you decide how hot, cold, wet, or windy it might be!

Date:

Astronomy

Dec. 19, 2013 Rise Set
Actual Time 7:46 AM CST 4:57 PM CST
Civil Twilight 7:14 AM CST 5:28 PM CST
Nautical Twilight 6:39 AM CST 6:03 PM CST
Astronomical Twilight 6:06 AM CST 6:37 PM CST
Moon 7:25 PM CST (12/19) 9:04 AM CST (12/19)
Length of Visible Light 10h 13m
Length of Day
9h 10m
Waning Gibbous, 95% of the Moon is Illuminated
Dec 19
Waning Gibbous
Dec 25
Last Quarter
Jan 1
New
Jan 7
First Quarter
Jan 15
Full

Hourly Weather History & Observations

Time (CST) Temp. Windchill Dew Point Humidity Pressure Visibility Wind Dir Wind Speed Gust Speed Precip Events Conditions
12:15 AM 33.4 °F 30.4 °F 26.6 °F 76% 29.73 in 10.0 mi North 3.5 mph - N/A   Clear
12:35 AM 33.6 °F 27.5 °F 27.3 °F 78% 29.73 in 10.0 mi North 6.9 mph - N/A   Clear
12:55 AM 32.7 °F 29.6 °F 27.5 °F 81% 29.73 in 10.0 mi North 3.5 mph - N/A   Clear
1:15 AM 34.0 °F 26.0 °F 27.5 °F 77% 29.73 in 10.0 mi North 10.4 mph - N/A   Clear
1:35 AM 32.0 °F 24.8 °F 26.6 °F 80% 29.73 in 10.0 mi North 8.1 mph - N/A   Clear
1:55 AM 32.0 °F 24.8 °F 26.4 °F 80% 29.73 in 10.0 mi North 8.1 mph - N/A   Clear
2:15 AM 32.4 °F 24.0 °F 26.6 °F 79% 29.73 in 10.0 mi North 10.4 mph - N/A   Clear
2:35 AM 32.9 °F 23.7 °F 27.0 °F 79% 29.74 in 10.0 mi North 12.7 mph - N/A   Clear
2:55 AM 32.9 °F 23.7 °F 27.1 °F 79% 29.74 in 10.0 mi North 12.7 mph - N/A   Clear
3:15 AM 33.1 °F 24.9 °F 26.8 °F 78% 29.74 in 10.0 mi North 10.4 mph - N/A   Clear
3:35 AM 32.7 °F 24.5 °F 26.6 °F 78% 29.75 in 10.0 mi North 10.4 mph - N/A   Clear
3:55 AM 32.2 °F 25.0 °F 26.4 °F 79% 29.75 in 10.0 mi North 8.1 mph - N/A   Clear
4:15 AM 32.9 °F 23.7 °F 26.2 °F 76% 29.74 in 10.0 mi North 12.7 mph - N/A   Clear
4:35 AM 33.3 °F 24.1 °F 26.4 °F 76% 29.74 in 10.0 mi North 12.7 mph - N/A   Clear
4:55 AM 32.9 °F 24.7 °F 26.4 °F 77% 29.76 in 10.0 mi North 10.4 mph - N/A   Clear
5:15 AM 32.0 °F 23.0 °F 26.4 °F 80% 29.76 in 10.0 mi North 11.5 mph - N/A   Clear
5:35 AM 32.2 °F 22.7 °F 26.2 °F 79% 29.77 in 10.0 mi North 12.7 mph - N/A   Clear
5:55 AM 32.0 °F 21.2 °F 26.4 °F 80% 29.76 in 10.0 mi North 16.1 mph 21.9 mph N/A   Clear
6:15 AM 32.0 °F 22.5 °F 26.6 °F 80% 29.77 in 10.0 mi North 12.7 mph - N/A   Clear
6:35 AM 32.0 °F 21.6 °F 26.4 °F 80% 29.77 in 10.0 mi North 15.0 mph - N/A   Clear
6:55 AM 31.6 °F 22.1 °F 26.2 °F 80% 29.78 in 10.0 mi North 12.7 mph 18.4 mph N/A   Clear
7:15 AM 31.1 °F 21.9 °F 26.1 °F 82% 29.80 in 10.0 mi North 11.5 mph - N/A   Clear
7:35 AM 31.1 °F 21.9 °F 25.7 °F 80% 29.80 in 10.0 mi North 11.5 mph - N/A   Clear
7:55 AM 30.7 °F 20.9 °F 25.5 °F 81% 29.81 in 10.0 mi North 12.7 mph - N/A   Clear
8:15 AM 30.2 °F 19.3 °F 25.3 °F 82% 29.80 in 10.0 mi North 15.0 mph - N/A   Clear
8:35 AM 30.2 °F 18.9 °F 24.8 °F 80% 29.81 in 10.0 mi North 16.1 mph - N/A   Clear
8:55 AM 29.8 °F 18.4 °F 24.4 °F 80% 29.81 in 10.0 mi North 16.1 mph 20.7 mph N/A   Clear
9:15 AM 28.9 °F 16.5 °F 23.5 °F 80% 29.81 in 10.0 mi North 18.4 mph 26.5 mph N/A   Clear
9:35 AM 28.4 °F 18.0 °F 23.0 °F 80% 29.82 in 10.0 mi North 12.7 mph - N/A   Clear
9:55 AM 28.9 °F 18.6 °F 23.0 °F 78% 29.83 in 10.0 mi NNE 12.7 mph 20.7 mph N/A   Clear
10:15 AM 28.8 °F 18.4 °F 22.6 °F 78% 29.82 in 10.0 mi NE 12.7 mph - N/A   Clear
10:35 AM 28.6 °F 16.0 °F 22.5 °F 78% 29.81 in 10.0 mi NNE 18.4 mph 24.2 mph N/A   Clear
10:55 AM 28.4 °F 15.8 °F 22.1 °F 77% 29.81 in 10.0 mi NNE 18.4 mph 24.2 mph N/A   Clear
11:15 AM 28.8 °F 17.9 °F 22.1 °F 76% 29.81 in 10.0 mi NNE 13.8 mph - N/A   Clear
11:35 AM 29.3 °F 17.7 °F 22.1 °F 75% 29.79 in 10.0 mi NNE 16.1 mph 21.9 mph N/A   Clear
11:55 AM 30.2 °F 18.1 °F 22.1 °F 72% 29.78 in 10.0 mi NNE 18.4 mph 24.2 mph N/A   Clear
12:15 PM 30.4 °F 19.5 °F 22.1 °F 71% 29.77 in 10.0 mi NNE 15.0 mph - N/A   Clear
12:35 PM 30.7 °F 20.4 °F 22.1 °F 70% 29.78 in 10.0 mi NNE 13.8 mph - N/A   Clear
12:55 PM 32.2 °F 21.1 °F 22.6 °F 68% 29.76 in 10.0 mi NNE 17.3 mph 21.9 mph N/A   Clear
1:15 PM 32.5 °F 22.3 °F 22.5 °F 66% 29.75 in 10.0 mi NNE 15.0 mph - N/A   Scattered Clouds
1:35 PM 32.7 °F 23.4 °F 22.3 °F 65% 29.75 in 10.0 mi NNE 12.7 mph 18.4 mph N/A   Scattered Clouds
1:55 PM 32.0 °F 22.1 °F 22.1 °F 67% 29.74 in 10.0 mi NNE 13.8 mph 20.7 mph N/A   Mostly Cloudy
2:15 PM 32.0 °F 22.5 °F 22.1 °F 67% 29.74 in 10.0 mi NNE 12.7 mph - N/A   Overcast
2:35 PM 31.8 °F 21.4 °F 21.6 °F 66% 29.75 in 10.0 mi North 15.0 mph - N/A   Overcast
2:55 PM 31.8 °F 20.6 °F 21.7 °F 66% 29.74 in 10.0 mi NNE 17.3 mph - N/A   Overcast
3:15 PM 31.5 °F 20.5 °F 21.9 °F 68% 29.74 in 10.0 mi NNE 16.1 mph - N/A   Overcast
3:35 PM 31.5 °F 20.1 °F 21.9 °F 68% 29.74 in 10.0 mi NNE 17.3 mph 20.7 mph N/A   Overcast
3:55 PM 31.5 °F 21.4 °F 22.1 °F 68% 29.75 in 10.0 mi NNE 13.8 mph - N/A   Overcast
4:15 PM 30.9 °F 19.8 °F 21.9 °F 69% 29.74 in 10.0 mi NNE 16.1 mph - N/A   Overcast
4:35 PM 29.8 °F 19.3 °F 21.6 °F 71% 29.76 in 10.0 mi NNE 13.8 mph 20.7 mph N/A   Overcast
4:55 PM 29.1 °F 17.5 °F 21.7 °F 74% 29.77 in 10.0 mi North 16.1 mph 20.7 mph N/A   Overcast
5:15 PM 28.8 °F 17.5 °F 22.1 °F 76% 29.78 in 10.0 mi North 15.0 mph 21.9 mph N/A   Overcast
5:35 PM 28.4 °F 16.6 °F 22.3 °F 78% 29.78 in 10.0 mi North 16.1 mph 21.9 mph N/A   Overcast
5:55 PM 27.7 °F 14.8 °F 22.6 °F 81% 29.79 in 10.0 mi North 18.4 mph 24.2 mph N/A   Overcast
6:15 PM 26.8 °F 14.5 °F 22.6 °F 84% 29.79 in 7.0 mi North 16.1 mph 21.9 mph N/A   Overcast
6:35 PM 25.7 °F 12.7 °F 22.1 °F 86% 29.79 in 7.0 mi North 17.3 mph 24.2 mph N/A   Overcast
6:55 PM 25.2 °F 12.4 °F 21.9 °F 87% 29.79 in 7.0 mi North 16.1 mph 21.9 mph N/A   Overcast
7:15 PM 24.6 °F 10.9 °F 21.6 °F 88% 29.81 in 5.0 mi North 18.4 mph 21.9 mph N/A   Overcast
7:35 PM 23.5 °F 10.8 °F 20.3 °F 87% 29.82 in 7.0 mi NNW 15.0 mph 21.9 mph N/A   Overcast
7:55 PM 22.1 °F 8.0 °F 19.0 °F 88% 29.83 in 7.0 mi NNW 17.3 mph 24.2 mph N/A   Overcast
8:15 PM 21.6 °F 7.3 °F 18.7 °F 89% 29.83 in 5.0 mi North 17.3 mph 25.3 mph N/A   Overcast
8:35 PM 21.2 °F 6.8 °F 18.7 °F 90% 29.83 in 4.0 mi North 17.3 mph - N/A   Overcast
8:55 PM 20.8 °F 8.4 °F 18.3 °F 90% 29.84 in 4.0 mi North 12.7 mph 18.4 mph N/A   Overcast
9:15 PM 19.8 °F 5.9 °F 17.6 °F 91% 29.85 in 5.0 mi NNW 15.0 mph 20.7 mph N/A   Overcast
9:35 PM 19.6 °F 3.9 °F 17.4 °F 91% 29.85 in 5.0 mi North 19.6 mph 25.3 mph N/A   Overcast
9:55 PM 19.8 °F 4.5 °F 17.4 °F 91% 29.85 in 5.0 mi NNW 18.4 mph 26.5 mph N/A   Overcast
10:15 PM 19.9 °F 5.2 °F 17.6 °F 91% 29.86 in 5.0 mi NNW 17.3 mph 25.3 mph N/A   Overcast
10:35 PM 19.9 °F 4.8 °F 17.6 °F 91% 29.86 in 5.0 mi NNW 18.4 mph - N/A   Overcast
10:55 PM 19.4 °F 4.5 °F 17.4 °F 92% 29.86 in 5.0 mi North 17.3 mph 24.2 mph N/A   Overcast
11:15 PM 19.4 °F 3.2 °F 17.2 °F 91% 29.86 in 5.0 mi NNW 20.7 mph 25.3 mph N/A   Overcast
11:35 PM 18.9 °F 2.1 °F 16.7 °F 91% 29.86 in 4.0 mi NNW 21.9 mph - N/A   Overcast
11:55 PM 18.5 °F 3.3 °F 16.2 °F 91% 29.87 in 4.0 mi NNW 17.3 mph 26.5 mph N/A   Overcast